Home > Weather > Tulsa > Past weeks

Flag for U.S.A. Weather for the Past 2 Weeks in Tulsa, Oklahoma, U.S.A.

Now
42 °F

Overcast.


Feels Like: 42 °F
Forecast: 34 / 52 °F
Wind: No wind

Location: Tulsa International Airport

Current Time: Feb 6, 2016 at 7:40:38 AM

Latest Report: Feb 6, 2016 at 6:53 AM


Visibility: 10 mi

Pressure: 30.31 "Hg

Humidity: 60%

Dew point: 29 °F

Location of TulsaLocation

Historic Weather in Tulsa — Graph

°F

Tulsa Temperature Yesterday

Maximum temperature yesterday: 56 °F (at 1:53 PM)
Minimum temperature yesterday: 28 °F (at 4:53 AM)
Average temperature yesterday: 44 °F

High & Low Weather Summary for the Past Weeks

 TemperatureHumidityPressure
High75 °F (Jan 29, 1:53 PM)93% (Feb 1, 5:53 AM)30.45 "Hg (Feb 1, 5:53 AM)
Low23 °F (Jan 22, 6:53 AM)20% (Jan 29, 1:53 PM)29.41 "Hg (Feb 2, 12:53 AM)
Average45 °F59%30.02 "Hg
* Reported Jan 22 5:53 AM — Feb 6 5:53 AM, Tulsa, Weather by CustomWeather, © 2016

Note: Actual official high and low records may vary slightly from our data, if they occured in-between our weather recording intervals... More about our weather records

Advertising

Tulsa Weather History for the Previous 24 Hours

 ConditionsComfort  
Time TempWeatherWind HumidityBarometerVisibility
5:53 AM
Sat, Feb 6
41 °FOvercast.6 mph62%30.29 "Hg10 mi
4:53 AM45 °FMostly cloudy.5 mph56%30.29 "Hg10 mi
3:53 AM47 °FMostly cloudy.8 mph54%30.28 "Hg10 mi
2:53 AM46 °FOvercast.9 mph50%30.29 "Hg10 mi
1:53 AM45 °FOvercast.3 mph49%30.29 "Hg10 mi
12:53 AM47 °FMostly cloudy.5 mph42%30.28 "Hg9 mi
11:53 PM
Fri, Feb 5
48 °FMostly cloudy.3 mph41%30.28 "Hg7 mi
10:53 PM48 °FOvercast.7 mph41%30.28 "Hg5 mi
9:53 PM49 °FOvercast.8 mph39%30.28 "Hg7 mi
8:53 PM49 °FOvercast.12 mph38%30.27 "Hg4 mi
7:53 PM50 °FOvercast.9 mph38%30.27 "Hg10 mi
6:53 PM50 °FMostly cloudy.9 mph38%30.27 "Hg10 mi
5:53 PM51 °FPartly sunny.9 mph36%30.27 "Hg10 mi
4:53 PM55 °FPartly sunny.14 mph31%30.26 "Hg10 mi
3:53 PM56 °FPartly sunny.15 mph29%30.26 "Hg10 mi
2:53 PM55 °FPartly sunny.12 mph31%30.28 "Hg10 mi
1:53 PM56 °FPartly sunny.13 mph28%30.30 "Hg10 mi
12:53 PM55 °FPartly sunny.7 mph33%30.33 "Hg10 mi
11:53 AM52 °FPassing clouds.16 mph37%30.37 "Hg10 mi
10:53 AM49 °FPartly sunny.9 mph39%30.40 "Hg10 mi
9:53 AM43 °FOvercast.3 mph49%30.43 "Hg10 mi
8:53 AM36 °FOvercast.No wind59%30.44 "Hg10 mi
7:53 AM31 °FOvercast.No wind69%30.42 "Hg10 mi
Weather by CustomWeather, © 2016

See weather overviewHow to use our weather pages